sat.trackr.live / text

‹ back to catalog

BRO-1

NORAD 44495 · 2019-054A

PAYLOAD ACTIVE UNKNOWN

§ Identity

Operator
Country
FR
Launch date
2019-08-19
Launch site
RLLB
Launch vehicle
Mass (kg)
RCS (m²)

External: N2YO · Heavens-Above · Gunter

§ Orbital elements

Epoch: 2026-05-25T03:20:06.948384Z

Period
91.10 min
Inclination
44.9963°
Eccentricity
0.0009257
Mean motion
15.80643697 rev/d
Perigee alt
322.4 km
Apogee alt
334.8 km
Semi-major
6,706.8 km
B*
6.9389e-4
RAAN
66.4062°
Arg perigee
161.5875°
Mean anomaly
198.5364°
Rev number
37,608

§ Raw data

BRO-11 44495U 19054A   26145.13896931  .00138782  00000+0  69389-3 0  99992 44495  44.9963  66.4062 0009257 161.5875 198.5364 15.80643697376082

JSON: /api/v1/satellites/44495 · /tle

For live sub-satellite position, see the globe view (requires WebGL).

§ Visibility from observer

Set your observer location to see the next 7 days of passes ≥ 10°. The values pass through the URL so the page stays shareable.

No JS? Fill the form by hand. The geolocation button needs JavaScript.